Data supplied by UK-AIR on 31/3/2012
All Data GMT hour ending 
Status: R =Ratified P=Provisional,P*=As supplied
,,Bath Roadside,,,,,,,,,,,,,,,,,,,,,,,
Date,time,"Nitric oxide",status,unit,"Nitrogen dioxide",status,unit,"Nitrogen oxides as nitrogen dioxide",status,unit
 
01-01-2011,01:00,13,R,ugm-3,23,R,ugm-3,42,R,ugm-3
01-01-2011,02:00,1,R,ugm-3,10,R,ugm-3,11,R,ugm-3
01-01-2011,03:00,1,R,ugm-3,10,R,ugm-3,11,R,ugm-3
01-01-2011,04:00,1,R,ugm-3,13,R,ugm-3,15,R,ugm-3
01-01-2011,05:00,5,R,ugm-3,15,R,ugm-3,23,R,ugm-3
01-01-2011,06:00,3,R,ugm-3,13,R,ugm-3,17,R,ugm-3
01-01-2011,07:00,10,R,ugm-3,23,R,ugm-3,38,R,ugm-3
01-01-2011,08:00,13,R,ugm-3,29,R,ugm-3,48,R,ugm-3
01-01-2011,09:00,14,R,ugm-3,29,R,ugm-3,50,R,ugm-3
01-01-2011,10:00,45,R,ugm-3,50,R,ugm-3,118,R,ugm-3
01-01-2011,11:00,66,R,ugm-3,59,R,ugm-3,160,R,ugm-3
01-01-2011,12:00,94,R,ugm-3,78,R,ugm-3,222,R,ugm-3
01-01-2011,13:00,81,R,ugm-3,78,R,ugm-3,202,R,ugm-3
01-01-2011,14:00,83,R,ugm-3,73,R,ugm-3,199,R,ugm-3
01-01-2011,15:00,105,R,ugm-3,80,R,ugm-3,241,R,ugm-3
01-01-2011,16:00,94,R,ugm-3,73,R,ugm-3,216,R,ugm-3
01-01-2011,17:00,36,R,ugm-3,52,R,ugm-3,107,R,ugm-3
01-01-2011,18:00,70,R,ugm-3,63,R,ugm-3,170,R,ugm-3
01-01-2011,19:00,76,R,ugm-3,63,R,ugm-3,180,R,ugm-3
01-01-2011,20:00,70,R,ugm-3,55,R,ugm-3,162,R,ugm-3
01-01-2011,21:00,80,R,ugm-3,53,R,ugm-3,176,R,ugm-3
01-01-2011,22:00,49,R,ugm-3,48,R,ugm-3,122,R,ugm-3
01-01-2011,23:00,34,R,ugm-3,48,R,ugm-3,99,R,ugm-3
01-01-2011,24:00,35,R,ugm-3,44,R,ugm-3,97,R,ugm-3
02-01-2011,01:00,4,R,ugm-3,31,R,ugm-3,36,R,ugm-3
02-01-2011,02:00,4,R,ugm-3,27,R,ugm-3,32,R,ugm-3
02-01-2011,03:00,5,R,ugm-3,23,R,ugm-3,31,R,ugm-3
02-01-2011,04:00,1,R,ugm-3,19,R,ugm-3,21,R,ugm-3
02-01-2011,05:00,19,R,ugm-3,31,R,ugm-3,59,R,ugm-3
02-01-2011,06:00,20,R,ugm-3,36,R,ugm-3,67,R,ugm-3
02-01-2011,07:00,25,R,ugm-3,36,R,ugm-3,74,R,ugm-3
02-01-2011,08:00,35,R,ugm-3,44,R,ugm-3,97,R,ugm-3
02-01-2011,09:00,44,R,ugm-3,46,R,ugm-3,113,R,ugm-3
02-01-2011,10:00,80,R,ugm-3,55,R,ugm-3,178,R,ugm-3
02-01-2011,11:00,104,R,ugm-3,61,R,ugm-3,220,R,ugm-3
02-01-2011,12:00,88,R,ugm-3,69,R,ugm-3,202,R,ugm-3
02-01-2011,13:00,50,R,ugm-3,55,R,ugm-3,132,R,ugm-3
02-01-2011,14:00,53,R,ugm-3,55,R,ugm-3,136,R,ugm-3
02-01-2011,15:00,89,R,ugm-3,63,R,ugm-3,199,R,ugm-3
02-01-2011,16:00,105,R,ugm-3,74,R,ugm-3,235,R,ugm-3
02-01-2011,17:00,75,R,ugm-3,63,R,ugm-3,178,R,ugm-3
02-01-2011,18:00,79,R,ugm-3,63,R,ugm-3,183,R,ugm-3
02-01-2011,19:00,53,R,ugm-3,55,R,ugm-3,136,R,ugm-3
02-01-2011,20:00,54,R,ugm-3,59,R,ugm-3,141,R,ugm-3
02-01-2011,21:00,53,R,ugm-3,57,R,ugm-3,138,R,ugm-3
02-01-2011,22:00,9,R,ugm-3,36,R,ugm-3,50,R,ugm-3
02-01-2011,23:00,13,R,ugm-3,34,R,ugm-3,53,R,ugm-3
02-01-2011,24:00,6,R,ugm-3,29,R,ugm-3,38,R,ugm-3
03-01-2011,01:00,9,R,ugm-3,31,R,ugm-3,44,R,ugm-3
03-01-2011,02:00,24,R,ugm-3,44,R,ugm-3,80,R,ugm-3
03-01-2011,03:00,30,R,ugm-3,42,R,ugm-3,88,R,ugm-3
03-01-2011,04:00,25,R,ugm-3,40,R,ugm-3,78,R,ugm-3
03-01-2011,05:00,40,R,ugm-3,50,R,ugm-3,111,R,ugm-3
03-01-2011,06:00,121,R,ugm-3,74,R,ugm-3,260,R,ugm-3
03-01-2011,07:00,118,R,ugm-3,92,R,ugm-3,271,R,ugm-3
03-01-2011,08:00,235,R,ugm-3,101,R,ugm-3,460,R,ugm-3
03-01-2011,09:00,249,R,ugm-3,115,R,ugm-3,495,R,ugm-3
03-01-2011,10:00,,,,,,,,,
03-01-2011,11:00,,,,,,,,,
03-01-2011,12:00,,,,,,,,,
03-01-2011,13:00,,,,,,,,,
03-01-2011,14:00,,,,,,,,,
03-01-2011,15:00,,,,,,,,,
03-01-2011,16:00,,,,,,,,,
03-01-2011,17:00,,,,,,,,,
03-01-2011,18:00,,,,,,,,,
03-01-2011,19:00,,,,,,,,,
03-01-2011,20:00,,,,,,,,,
03-01-2011,21:00,,,,,,,,,
03-01-2011,22:00,,,,,,,,,
03-01-2011,23:00,,,,,,,,,
03-01-2011,24:00,,,,,,,,,
04-01-2011,01:00,,,,,,,,,
04-01-2011,02:00,,,,,,,,,
04-01-2011,03:00,,,,,,,,,
04-01-2011,04:00,,,,,,,,,
04-01-2011,05:00,,,,,,,,,
04-01-2011,06:00,,,,,,,,,
04-01-2011,07:00,,,,,,,,,
04-01-2011,08:00,,,,,,,,,
04-01-2011,09:00,,,,,,,,,
04-01-2011,10:00,,,,,,,,,
04-01-2011,11:00,,,,,,,,,
04-01-2011,12:00,,,,,,,,,
04-01-2011,13:00,126,R,ugm-3,99,R,ugm-3,292,R,ugm-3
04-01-2011,14:00,148,R,ugm-3,92,R,ugm-3,317,R,ugm-3
04-01-2011,15:00,151,R,ugm-3,99,R,ugm-3,330,R,ugm-3
04-01-2011,16:00,199,R,ugm-3,107,R,ugm-3,411,R,ugm-3
04-01-2011,17:00,184,R,ugm-3,107,R,ugm-3,388,R,ugm-3
04-01-2011,18:00,149,R,ugm-3,94,R,ugm-3,321,R,ugm-3
04-01-2011,19:00,85,R,ugm-3,82,R,ugm-3,212,R,ugm-3
04-01-2011,20:00,65,R,ugm-3,71,R,ugm-3,170,R,ugm-3
04-01-2011,21:00,54,R,ugm-3,57,R,ugm-3,139,R,ugm-3
04-01-2011,22:00,28,R,ugm-3,48,R,ugm-3,90,R,ugm-3
04-01-2011,23:00,15,R,ugm-3,38,R,ugm-3,61,R,ugm-3
04-01-2011,24:00,16,R,ugm-3,36,R,ugm-3,61,R,ugm-3
05-01-2011,01:00,6,R,ugm-3,25,R,ugm-3,34,R,ugm-3
05-01-2011,02:00,6,R,ugm-3,23,R,ugm-3,32,R,ugm-3
05-01-2011,03:00,8,R,ugm-3,27,R,ugm-3,38,R,ugm-3
05-01-2011,04:00,6,R,ugm-3,19,R,ugm-3,29,R,ugm-3
05-01-2011,05:00,6,R,ugm-3,17,R,ugm-3,27,R,ugm-3
05-01-2011,06:00,21,R,ugm-3,31,R,ugm-3,63,R,ugm-3
05-01-2011,07:00,46,R,ugm-3,52,R,ugm-3,122,R,ugm-3
05-01-2011,08:00,96,R,ugm-3,78,R,ugm-3,225,R,ugm-3
05-01-2011,09:00,116,R,ugm-3,78,R,ugm-3,256,R,ugm-3
05-01-2011,10:00,83,R,ugm-3,71,R,ugm-3,197,R,ugm-3
05-01-2011,11:00,91,R,ugm-3,76,R,ugm-3,216,R,ugm-3
05-01-2011,12:00,95,R,ugm-3,69,R,ugm-3,214,R,ugm-3
05-01-2011,13:00,98,R,ugm-3,73,R,ugm-3,222,R,ugm-3
05-01-2011,14:00,156,R,ugm-3,96,R,ugm-3,334,R,ugm-3
05-01-2011,15:00,194,R,ugm-3,90,R,ugm-3,386,R,ugm-3
05-01-2011,16:00,269,R,ugm-3,101,R,ugm-3,512,R,ugm-3
05-01-2011,17:00,261,R,ugm-3,92,R,ugm-3,491,R,ugm-3
05-01-2011,18:00,265,R,ugm-3,113,R,ugm-3,518,R,ugm-3
05-01-2011,19:00,160,R,ugm-3,86,R,ugm-3,330,R,ugm-3
05-01-2011,20:00,175,R,ugm-3,84,R,ugm-3,351,R,ugm-3
05-01-2011,21:00,196,R,ugm-3,82,R,ugm-3,382,R,ugm-3
05-01-2011,22:00,206,R,ugm-3,67,R,ugm-3,382,R,ugm-3
05-01-2011,23:00,233,R,ugm-3,74,R,ugm-3,430,R,ugm-3
05-01-2011,24:00,139,R,ugm-3,53,R,ugm-3,265,R,ugm-3
06-01-2011,01:00,99,R,ugm-3,42,R,ugm-3,193,R,ugm-3
06-01-2011,02:00,81,R,ugm-3,38,R,ugm-3,162,R,ugm-3
06-01-2011,03:00,53,R,ugm-3,36,R,ugm-3,117,R,ugm-3
06-01-2011,04:00,35,R,ugm-3,27,R,ugm-3,80,R,ugm-3
06-01-2011,05:00,46,R,ugm-3,34,R,ugm-3,105,R,ugm-3
06-01-2011,06:00,53,R,ugm-3,38,R,ugm-3,118,R,ugm-3
06-01-2011,07:00,144,R,ugm-3,67,R,ugm-3,287,R,ugm-3
06-01-2011,08:00,245,R,ugm-3,73,R,ugm-3,447,R,ugm-3
06-01-2011,09:00,176,R,ugm-3,82,R,ugm-3,351,R,ugm-3
06-01-2011,10:00,296,R,ugm-3,101,R,ugm-3,554,R,ugm-3
06-01-2011,11:00,254,R,ugm-3,115,R,ugm-3,502,R,ugm-3
06-01-2011,12:00,173,R,ugm-3,99,R,ugm-3,363,R,ugm-3
06-01-2011,13:00,139,R,ugm-3,103,R,ugm-3,315,R,ugm-3
06-01-2011,14:00,111,R,ugm-3,78,R,ugm-3,248,R,ugm-3
06-01-2011,15:00,119,R,ugm-3,84,R,ugm-3,265,R,ugm-3
06-01-2011,16:00,140,R,ugm-3,88,R,ugm-3,302,R,ugm-3
06-01-2011,17:00,171,R,ugm-3,90,R,ugm-3,351,R,ugm-3
06-01-2011,18:00,278,R,ugm-3,101,R,ugm-3,525,R,ugm-3
06-01-2011,19:00,213,R,ugm-3,94,R,ugm-3,418,R,ugm-3
06-01-2011,20:00,236,R,ugm-3,90,R,ugm-3,451,R,ugm-3
06-01-2011,21:00,174,R,ugm-3,73,R,ugm-3,338,R,ugm-3
06-01-2011,22:00,136,R,ugm-3,71,R,ugm-3,279,R,ugm-3
06-01-2011,23:00,95,R,ugm-3,53,R,ugm-3,199,R,ugm-3
06-01-2011,24:00,50,R,ugm-3,40,R,ugm-3,117,R,ugm-3
07-01-2011,01:00,36,R,ugm-3,34,R,ugm-3,90,R,ugm-3
07-01-2011,02:00,26,R,ugm-3,46,R,ugm-3,86,R,ugm-3
07-01-2011,03:00,6,R,ugm-3,40,R,ugm-3,50,R,ugm-3
07-01-2011,04:00,11,R,ugm-3,44,R,ugm-3,61,R,ugm-3
07-01-2011,05:00,33,R,ugm-3,50,R,ugm-3,99,R,ugm-3
07-01-2011,06:00,45,R,ugm-3,59,R,ugm-3,128,R,ugm-3
07-01-2011,07:00,49,R,ugm-3,69,R,ugm-3,143,R,ugm-3
07-01-2011,08:00,46,R,ugm-3,67,R,ugm-3,138,R,ugm-3
07-01-2011,09:00,56,R,ugm-3,69,R,ugm-3,155,R,ugm-3
07-01-2011,10:00,104,R,ugm-3,78,R,ugm-3,237,R,ugm-3
07-01-2011,11:00,89,R,ugm-3,69,R,ugm-3,204,R,ugm-3
07-01-2011,12:00,134,R,ugm-3,71,R,ugm-3,275,R,ugm-3
07-01-2011,13:00,306,R,ugm-3,90,R,ugm-3,558,R,ugm-3
07-01-2011,14:00,400,R,ugm-3,118,R,ugm-3,730,R,ugm-3
07-01-2011,15:00,218,R,ugm-3,107,R,ugm-3,439,R,ugm-3
07-01-2011,16:00,108,R,ugm-3,88,R,ugm-3,252,R,ugm-3
07-01-2011,17:00,88,R,ugm-3,78,R,ugm-3,212,R,ugm-3
07-01-2011,18:00,86,R,ugm-3,80,R,ugm-3,212,R,ugm-3
07-01-2011,19:00,81,R,ugm-3,82,R,ugm-3,206,R,ugm-3
07-01-2011,20:00,44,R,ugm-3,63,R,ugm-3,130,R,ugm-3
07-01-2011,21:00,46,R,ugm-3,61,R,ugm-3,132,R,ugm-3
07-01-2011,22:00,26,R,ugm-3,50,R,ugm-3,90,R,ugm-3
07-01-2011,23:00,28,R,ugm-3,61,R,ugm-3,103,R,ugm-3
07-01-2011,24:00,14,R,ugm-3,53,R,ugm-3,74,R,ugm-3
08-01-2011,01:00,10,R,ugm-3,38,R,ugm-3,53,R,ugm-3
08-01-2011,02:00,8,R,ugm-3,23,R,ugm-3,34,R,ugm-3
08-01-2011,03:00,8,R,ugm-3,27,R,ugm-3,38,R,ugm-3
08-01-2011,04:00,10,R,ugm-3,23,R,ugm-3,38,R,ugm-3
08-01-2011,05:00,36,R,ugm-3,44,R,ugm-3,99,R,ugm-3
08-01-2011,06:00,26,R,ugm-3,44,R,ugm-3,84,R,ugm-3
08-01-2011,07:00,21,R,ugm-3,40,R,ugm-3,73,R,ugm-3
08-01-2011,08:00,38,R,ugm-3,50,R,ugm-3,107,R,ugm-3
08-01-2011,09:00,48,R,ugm-3,78,R,ugm-3,151,R,ugm-3
08-01-2011,10:00,69,R,ugm-3,61,R,ugm-3,166,R,ugm-3
08-01-2011,11:00,65,R,ugm-3,67,R,ugm-3,166,R,ugm-3
08-01-2011,12:00,60,R,ugm-3,63,R,ugm-3,155,R,ugm-3
08-01-2011,13:00,49,R,ugm-3,61,R,ugm-3,136,R,ugm-3
08-01-2011,14:00,60,R,ugm-3,63,R,ugm-3,155,R,ugm-3
08-01-2011,15:00,73,R,ugm-3,65,R,ugm-3,176,R,ugm-3
08-01-2011,16:00,119,R,ugm-3,96,R,ugm-3,277,R,ugm-3
08-01-2011,17:00,135,R,ugm-3,101,R,ugm-3,308,R,ugm-3
08-01-2011,18:00,126,R,ugm-3,103,R,ugm-3,296,R,ugm-3
08-01-2011,19:00,138,R,ugm-3,105,R,ugm-3,315,R,ugm-3
08-01-2011,20:00,105,R,ugm-3,99,R,ugm-3,260,R,ugm-3
08-01-2011,21:00,54,R,ugm-3,78,R,ugm-3,160,R,ugm-3
08-01-2011,22:00,25,R,ugm-3,53,R,ugm-3,92,R,ugm-3
08-01-2011,23:00,28,R,ugm-3,59,R,ugm-3,101,R,ugm-3
08-01-2011,24:00,36,R,ugm-3,53,R,ugm-3,109,R,ugm-3
09-01-2011,01:00,19,R,ugm-3,40,R,ugm-3,69,R,ugm-3
09-01-2011,02:00,23,R,ugm-3,42,R,ugm-3,76,R,ugm-3
09-01-2011,03:00,20,R,ugm-3,46,R,ugm-3,76,R,ugm-3
09-01-2011,04:00,25,R,ugm-3,46,R,ugm-3,84,R,ugm-3
09-01-2011,05:00,29,R,ugm-3,50,R,ugm-3,94,R,ugm-3
09-01-2011,06:00,30,R,ugm-3,48,R,ugm-3,94,R,ugm-3
09-01-2011,07:00,38,R,ugm-3,52,R,ugm-3,109,R,ugm-3
09-01-2011,08:00,81,R,ugm-3,73,R,ugm-3,197,R,ugm-3
09-01-2011,09:00,126,R,ugm-3,80,R,ugm-3,273,R,ugm-3
09-01-2011,10:00,174,R,ugm-3,84,R,ugm-3,350,R,ugm-3
09-01-2011,11:00,155,R,ugm-3,101,R,ugm-3,338,R,ugm-3
09-01-2011,12:00,75,R,ugm-3,76,R,ugm-3,191,R,ugm-3
09-01-2011,13:00,63,R,ugm-3,74,R,ugm-3,170,R,ugm-3
09-01-2011,14:00,75,R,ugm-3,80,R,ugm-3,195,R,ugm-3
09-01-2011,15:00,69,R,ugm-3,73,R,ugm-3,178,R,ugm-3
09-01-2011,16:00,94,R,ugm-3,90,R,ugm-3,233,R,ugm-3
09-01-2011,17:00,145,R,ugm-3,103,R,ugm-3,325,R,ugm-3
09-01-2011,18:00,171,R,ugm-3,118,R,ugm-3,380,R,ugm-3
09-01-2011,19:00,193,R,ugm-3,107,R,ugm-3,401,R,ugm-3
09-01-2011,20:00,155,R,ugm-3,78,R,ugm-3,315,R,ugm-3
09-01-2011,21:00,118,R,ugm-3,69,R,ugm-3,248,R,ugm-3
09-01-2011,22:00,84,R,ugm-3,59,R,ugm-3,187,R,ugm-3
09-01-2011,23:00,63,R,ugm-3,48,R,ugm-3,143,R,ugm-3
09-01-2011,24:00,49,R,ugm-3,40,R,ugm-3,115,R,ugm-3
10-01-2011,01:00,20,R,ugm-3,32,R,ugm-3,63,R,ugm-3
10-01-2011,02:00,23,R,ugm-3,31,R,ugm-3,65,R,ugm-3
10-01-2011,03:00,13,R,ugm-3,31,R,ugm-3,50,R,ugm-3
10-01-2011,04:00,19,R,ugm-3,36,R,ugm-3,65,R,ugm-3
10-01-2011,05:00,63,R,ugm-3,48,R,ugm-3,143,R,ugm-3
10-01-2011,06:00,140,R,ugm-3,59,R,ugm-3,273,R,ugm-3
10-01-2011,07:00,183,R,ugm-3,88,R,ugm-3,367,R,ugm-3
10-01-2011,08:00,146,R,ugm-3,94,R,ugm-3,317,R,ugm-3
10-01-2011,09:00,278,R,ugm-3,139,R,ugm-3,563,R,ugm-3
10-01-2011,10:00,185,R,ugm-3,113,R,ugm-3,395,R,ugm-3
10-01-2011,11:00,119,R,ugm-3,96,R,ugm-3,277,R,ugm-3
10-01-2011,12:00,111,R,ugm-3,107,R,ugm-3,277,R,ugm-3
10-01-2011,13:00,81,R,ugm-3,90,R,ugm-3,214,R,ugm-3
10-01-2011,14:00,71,R,ugm-3,82,R,ugm-3,191,R,ugm-3
10-01-2011,15:00,85,R,ugm-3,76,R,ugm-3,206,R,ugm-3
10-01-2011,16:00,93,R,ugm-3,92,R,ugm-3,233,R,ugm-3
10-01-2011,17:00,80,R,ugm-3,78,R,ugm-3,201,R,ugm-3
10-01-2011,18:00,76,R,ugm-3,78,R,ugm-3,195,R,ugm-3
10-01-2011,19:00,66,R,ugm-3,69,R,ugm-3,170,R,ugm-3
10-01-2011,20:00,43,R,ugm-3,50,R,ugm-3,115,R,ugm-3
10-01-2011,21:00,31,R,ugm-3,42,R,ugm-3,90,R,ugm-3
10-01-2011,22:00,21,R,ugm-3,36,R,ugm-3,69,R,ugm-3
10-01-2011,23:00,16,R,ugm-3,29,R,ugm-3,53,R,ugm-3
10-01-2011,24:00,19,R,ugm-3,32,R,ugm-3,61,R,ugm-3
11-01-2011,01:00,13,R,ugm-3,25,R,ugm-3,44,R,ugm-3
11-01-2011,02:00,9,R,ugm-3,29,R,ugm-3,42,R,ugm-3
11-01-2011,03:00,40,R,ugm-3,59,R,ugm-3,120,R,ugm-3
11-01-2011,04:00,16,R,ugm-3,46,R,ugm-3,71,R,ugm-3
11-01-2011,05:00,36,R,ugm-3,48,R,ugm-3,103,R,ugm-3
11-01-2011,06:00,38,R,ugm-3,61,R,ugm-3,118,R,ugm-3
11-01-2011,07:00,49,R,ugm-3,57,R,ugm-3,132,R,ugm-3
11-01-2011,08:00,101,R,ugm-3,82,R,ugm-3,237,R,ugm-3
11-01-2011,09:00,83,R,ugm-3,76,R,ugm-3,202,R,ugm-3
11-01-2011,10:00,54,R,ugm-3,67,R,ugm-3,149,R,ugm-3
11-01-2011,11:00,99,R,ugm-3,80,R,ugm-3,231,R,ugm-3
11-01-2011,12:00,91,R,ugm-3,82,R,ugm-3,222,R,ugm-3
11-01-2011,13:00,101,R,ugm-3,86,R,ugm-3,241,R,ugm-3
11-01-2011,14:00,63,R,ugm-3,69,R,ugm-3,164,R,ugm-3
11-01-2011,15:00,46,R,ugm-3,59,R,ugm-3,130,R,ugm-3
11-01-2011,16:00,110,R,ugm-3,88,R,ugm-3,256,R,ugm-3
11-01-2011,17:00,141,R,ugm-3,97,R,ugm-3,313,R,ugm-3
11-01-2011,18:00,125,R,ugm-3,113,R,ugm-3,304,R,ugm-3
11-01-2011,19:00,116,R,ugm-3,94,R,ugm-3,271,R,ugm-3
11-01-2011,20:00,166,R,ugm-3,103,R,ugm-3,357,R,ugm-3
11-01-2011,21:00,121,R,ugm-3,105,R,ugm-3,290,R,ugm-3
11-01-2011,22:00,59,R,ugm-3,74,R,ugm-3,164,R,ugm-3
11-01-2011,23:00,53,R,ugm-3,69,R,ugm-3,149,R,ugm-3
11-01-2011,24:00,33,R,ugm-3,52,R,ugm-3,101,R,ugm-3
12-01-2011,01:00,25,R,ugm-3,42,R,ugm-3,80,R,ugm-3
12-01-2011,02:00,20,R,ugm-3,32,R,ugm-3,63,R,ugm-3
12-01-2011,03:00,11,R,ugm-3,21,R,ugm-3,38,R,ugm-3
12-01-2011,04:00,10,R,ugm-3,19,R,ugm-3,34,R,ugm-3
12-01-2011,05:00,35,R,ugm-3,36,R,ugm-3,90,R,ugm-3
12-01-2011,06:00,69,R,ugm-3,55,R,ugm-3,160,R,ugm-3
12-01-2011,07:00,103,R,ugm-3,71,R,ugm-3,227,R,ugm-3
12-01-2011,08:00,204,R,ugm-3,90,R,ugm-3,401,R,ugm-3
12-01-2011,09:00,260,R,ugm-3,117,R,ugm-3,514,R,ugm-3
12-01-2011,10:00,163,R,ugm-3,90,R,ugm-3,338,R,ugm-3
12-01-2011,11:00,184,R,ugm-3,103,R,ugm-3,384,R,ugm-3
12-01-2011,12:00,181,R,ugm-3,90,R,ugm-3,367,R,ugm-3
12-01-2011,13:00,190,R,ugm-3,105,R,ugm-3,395,R,ugm-3
12-01-2011,14:00,183,R,ugm-3,94,R,ugm-3,372,R,ugm-3
12-01-2011,15:00,193,R,ugm-3,103,R,ugm-3,397,R,ugm-3
12-01-2011,16:00,193,R,ugm-3,92,R,ugm-3,386,R,ugm-3
12-01-2011,17:00,124,R,ugm-3,88,R,ugm-3,277,R,ugm-3
12-01-2011,18:00,146,R,ugm-3,92,R,ugm-3,315,R,ugm-3
12-01-2011,19:00,138,R,ugm-3,84,R,ugm-3,294,R,ugm-3
12-01-2011,20:00,91,R,ugm-3,69,R,ugm-3,208,R,ugm-3
12-01-2011,21:00,104,R,ugm-3,65,R,ugm-3,223,R,ugm-3
12-01-2011,22:00,73,R,ugm-3,59,R,ugm-3,170,R,ugm-3
12-01-2011,23:00,54,R,ugm-3,48,R,ugm-3,130,R,ugm-3
12-01-2011,24:00,24,R,ugm-3,34,R,ugm-3,71,R,ugm-3
13-01-2011,01:00,14,R,ugm-3,27,R,ugm-3,48,R,ugm-3
13-01-2011,02:00,10,R,ugm-3,17,R,ugm-3,32,R,ugm-3
13-01-2011,03:00,8,R,ugm-3,19,R,ugm-3,31,R,ugm-3
13-01-2011,04:00,15,R,ugm-3,23,R,ugm-3,46,R,ugm-3
13-01-2011,05:00,26,R,ugm-3,27,R,ugm-3,67,R,ugm-3
13-01-2011,06:00,38,R,ugm-3,34,R,ugm-3,92,R,ugm-3
13-01-2011,07:00,69,R,ugm-3,52,R,ugm-3,157,R,ugm-3
13-01-2011,08:00,104,R,ugm-3,69,R,ugm-3,227,R,ugm-3
13-01-2011,09:00,214,R,ugm-3,103,R,ugm-3,430,R,ugm-3
13-01-2011,10:00,184,R,ugm-3,97,R,ugm-3,378,R,ugm-3
13-01-2011,11:00,166,R,ugm-3,88,R,ugm-3,342,R,ugm-3
13-01-2011,12:00,149,R,ugm-3,84,R,ugm-3,311,R,ugm-3
13-01-2011,13:00,139,R,ugm-3,78,R,ugm-3,290,R,ugm-3
13-01-2011,14:00,190,R,ugm-3,97,R,ugm-3,388,R,ugm-3
13-01-2011,15:00,216,R,ugm-3,96,R,ugm-3,426,R,ugm-3
13-01-2011,16:00,226,R,ugm-3,101,R,ugm-3,447,R,ugm-3
13-01-2011,17:00,219,R,ugm-3,96,R,ugm-3,430,R,ugm-3
13-01-2011,18:00,166,R,ugm-3,97,R,ugm-3,351,R,ugm-3
13-01-2011,19:00,125,R,ugm-3,82,R,ugm-3,273,R,ugm-3
13-01-2011,20:00,90,R,ugm-3,69,R,ugm-3,206,R,ugm-3
13-01-2011,21:00,36,R,ugm-3,52,R,ugm-3,107,R,ugm-3
13-01-2011,22:00,25,R,ugm-3,42,R,ugm-3,80,R,ugm-3
13-01-2011,23:00,19,R,ugm-3,38,R,ugm-3,67,R,ugm-3
13-01-2011,24:00,14,R,ugm-3,34,R,ugm-3,55,R,ugm-3
14-01-2011,01:00,11,R,ugm-3,25,R,ugm-3,42,R,ugm-3
14-01-2011,02:00,6,R,ugm-3,21,R,ugm-3,31,R,ugm-3
14-01-2011,03:00,8,R,ugm-3,23,R,ugm-3,34,R,ugm-3
14-01-2011,04:00,13,R,ugm-3,25,R,ugm-3,44,R,ugm-3
14-01-2011,05:00,16,R,ugm-3,34,R,ugm-3,59,R,ugm-3
14-01-2011,06:00,39,R,ugm-3,50,R,ugm-3,109,R,ugm-3
14-01-2011,07:00,68,R,ugm-3,69,R,ugm-3,172,R,ugm-3
14-01-2011,08:00,133,R,ugm-3,101,R,ugm-3,304,R,ugm-3
14-01-2011,09:00,256,R,ugm-3,122,R,ugm-3,514,R,ugm-3
14-01-2011,10:00,154,R,ugm-3,101,R,ugm-3,336,R,ugm-3
14-01-2011,11:00,196,R,ugm-3,103,R,ugm-3,403,R,ugm-3
14-01-2011,12:00,181,R,ugm-3,115,R,ugm-3,392,R,ugm-3
14-01-2011,13:00,139,R,ugm-3,94,R,ugm-3,306,R,ugm-3
14-01-2011,14:00,156,R,ugm-3,117,R,ugm-3,355,R,ugm-3
14-01-2011,15:00,139,R,ugm-3,96,R,ugm-3,308,R,ugm-3
14-01-2011,16:00,121,R,ugm-3,109,R,ugm-3,294,R,ugm-3
14-01-2011,17:00,138,R,ugm-3,126,R,ugm-3,336,R,ugm-3
14-01-2011,18:00,99,R,ugm-3,118,R,ugm-3,269,R,ugm-3
14-01-2011,19:00,78,R,ugm-3,109,R,ugm-3,227,R,ugm-3
14-01-2011,20:00,83,R,ugm-3,113,R,ugm-3,239,R,ugm-3
14-01-2011,21:00,79,R,ugm-3,97,R,ugm-3,218,R,ugm-3
14-01-2011,22:00,60,R,ugm-3,84,R,ugm-3,176,R,ugm-3
14-01-2011,23:00,41,R,ugm-3,69,R,ugm-3,132,R,ugm-3
14-01-2011,24:00,34,R,ugm-3,63,R,ugm-3,115,R,ugm-3
15-01-2011,01:00,16,R,ugm-3,44,R,ugm-3,69,R,ugm-3
15-01-2011,02:00,18,R,ugm-3,48,R,ugm-3,74,R,ugm-3
15-01-2011,03:00,10,R,ugm-3,31,R,ugm-3,46,R,ugm-3
15-01-2011,04:00,9,R,ugm-3,21,R,ugm-3,34,R,ugm-3
15-01-2011,05:00,9,R,ugm-3,21,R,ugm-3,34,R,ugm-3
15-01-2011,06:00,14,R,ugm-3,29,R,ugm-3,50,R,ugm-3
15-01-2011,07:00,13,R,ugm-3,27,R,ugm-3,46,R,ugm-3
15-01-2011,08:00,24,R,ugm-3,40,R,ugm-3,76,R,ugm-3
15-01-2011,09:00,31,R,ugm-3,50,R,ugm-3,97,R,ugm-3
15-01-2011,10:00,40,R,ugm-3,55,R,ugm-3,117,R,ugm-3
15-01-2011,11:00,58,R,ugm-3,69,R,ugm-3,157,R,ugm-3
15-01-2011,12:00,51,R,ugm-3,67,R,ugm-3,145,R,ugm-3
15-01-2011,13:00,54,R,ugm-3,67,R,ugm-3,149,R,ugm-3
15-01-2011,14:00,63,R,ugm-3,82,R,ugm-3,178,R,ugm-3
15-01-2011,15:00,64,R,ugm-3,71,R,ugm-3,168,R,ugm-3
15-01-2011,16:00,49,R,ugm-3,71,R,ugm-3,145,R,ugm-3
15-01-2011,17:00,59,R,ugm-3,71,R,ugm-3,160,R,ugm-3
15-01-2011,18:00,84,R,ugm-3,90,R,ugm-3,218,R,ugm-3
15-01-2011,19:00,61,R,ugm-3,82,R,ugm-3,176,R,ugm-3
15-01-2011,20:00,61,R,ugm-3,78,R,ugm-3,172,R,ugm-3
15-01-2011,21:00,26,R,ugm-3,55,R,ugm-3,96,R,ugm-3
15-01-2011,22:00,13,R,ugm-3,34,R,ugm-3,53,R,ugm-3
15-01-2011,23:00,14,R,ugm-3,32,R,ugm-3,53,R,ugm-3
15-01-2011,24:00,13,R,ugm-3,34,R,ugm-3,53,R,ugm-3
16-01-2011,01:00,6,R,ugm-3,23,R,ugm-3,32,R,ugm-3
16-01-2011,02:00,10,R,ugm-3,23,R,ugm-3,38,R,ugm-3
16-01-2011,03:00,5,R,ugm-3,17,R,ugm-3,25,R,ugm-3
16-01-2011,04:00,3,R,ugm-3,15,R,ugm-3,19,R,ugm-3
16-01-2011,05:00,1,R,ugm-3,11,R,ugm-3,13,R,ugm-3
16-01-2011,06:00,0,R,ugm-3,8,R,ugm-3,8,R,ugm-3
16-01-2011,07:00,1,R,ugm-3,13,R,ugm-3,15,R,ugm-3
16-01-2011,08:00,8,R,ugm-3,17,R,ugm-3,29,R,ugm-3
16-01-2011,09:00,8,R,ugm-3,19,R,ugm-3,31,R,ugm-3
16-01-2011,10:00,25,R,ugm-3,32,R,ugm-3,71,R,ugm-3
16-01-2011,11:00,21,R,ugm-3,32,R,ugm-3,65,R,ugm-3
16-01-2011,12:00,28,R,ugm-3,40,R,ugm-3,82,R,ugm-3
16-01-2011,13:00,31,R,ugm-3,42,R,ugm-3,90,R,ugm-3
16-01-2011,14:00,41,R,ugm-3,48,R,ugm-3,111,R,ugm-3
16-01-2011,15:00,45,R,ugm-3,55,R,ugm-3,124,R,ugm-3
16-01-2011,16:00,58,R,ugm-3,57,R,ugm-3,145,R,ugm-3
16-01-2011,17:00,56,R,ugm-3,65,R,ugm-3,151,R,ugm-3
16-01-2011,18:00,83,R,ugm-3,94,R,ugm-3,220,R,ugm-3
16-01-2011,19:00,74,R,ugm-3,86,R,ugm-3,199,R,ugm-3
16-01-2011,20:00,60,R,ugm-3,78,R,ugm-3,170,R,ugm-3
16-01-2011,21:00,48,R,ugm-3,71,R,ugm-3,143,R,ugm-3
16-01-2011,22:00,28,R,ugm-3,52,R,ugm-3,94,R,ugm-3
16-01-2011,23:00,26,R,ugm-3,50,R,ugm-3,90,R,ugm-3
16-01-2011,24:00,21,R,ugm-3,55,R,ugm-3,88,R,ugm-3
17-01-2011,01:00,23,R,ugm-3,53,R,ugm-3,88,R,ugm-3
17-01-2011,02:00,15,R,ugm-3,34,R,ugm-3,57,R,ugm-3
17-01-2011,03:00,3,R,ugm-3,25,R,ugm-3,29,R,ugm-3
17-01-2011,04:00,8,R,ugm-3,25,R,ugm-3,36,R,ugm-3
17-01-2011,05:00,29,R,ugm-3,32,R,ugm-3,76,R,ugm-3
17-01-2011,06:00,28,R,ugm-3,42,R,ugm-3,84,R,ugm-3
17-01-2011,07:00,109,R,ugm-3,61,R,ugm-3,227,R,ugm-3
17-01-2011,08:00,186,R,ugm-3,92,R,ugm-3,376,R,ugm-3
17-01-2011,09:00,186,R,ugm-3,84,R,ugm-3,369,R,ugm-3
17-01-2011,10:00,154,R,ugm-3,92,R,ugm-3,327,R,ugm-3
17-01-2011,11:00,200,R,ugm-3,105,R,ugm-3,411,R,ugm-3
17-01-2011,12:00,121,R,ugm-3,105,R,ugm-3,290,R,ugm-3
17-01-2011,13:00,148,R,ugm-3,115,R,ugm-3,340,R,ugm-3
17-01-2011,14:00,174,R,ugm-3,128,R,ugm-3,393,R,ugm-3
17-01-2011,15:00,208,R,ugm-3,132,R,ugm-3,449,R,ugm-3
17-01-2011,16:00,188,R,ugm-3,122,R,ugm-3,409,R,ugm-3
17-01-2011,17:00,195,R,ugm-3,107,R,ugm-3,405,R,ugm-3
17-01-2011,18:00,179,R,ugm-3,111,R,ugm-3,384,R,ugm-3
17-01-2011,19:00,124,R,ugm-3,92,R,ugm-3,281,R,ugm-3
17-01-2011,20:00,78,R,ugm-3,82,R,ugm-3,201,R,ugm-3
17-01-2011,21:00,16,R,ugm-3,42,R,ugm-3,67,R,ugm-3
17-01-2011,22:00,18,R,ugm-3,46,R,ugm-3,73,R,ugm-3
17-01-2011,23:00,8,R,ugm-3,32,R,ugm-3,44,R,ugm-3
17-01-2011,24:00,1,R,ugm-3,19,R,ugm-3,21,R,ugm-3
18-01-2011,01:00,3,R,ugm-3,21,R,ugm-3,25,R,ugm-3
18-01-2011,02:00,3,R,ugm-3,17,R,ugm-3,21,R,ugm-3
18-01-2011,03:00,4,R,ugm-3,19,R,ugm-3,25,R,ugm-3
18-01-2011,04:00,4,R,ugm-3,27,R,ugm-3,32,R,ugm-3
18-01-2011,05:00,5,R,ugm-3,21,R,ugm-3,29,R,ugm-3
18-01-2011,06:00,9,R,ugm-3,23,R,ugm-3,36,R,ugm-3
18-01-2011,07:00,93,R,ugm-3,71,R,ugm-3,212,R,ugm-3
18-01-2011,08:00,200,R,ugm-3,92,R,ugm-3,397,R,ugm-3
18-01-2011,09:00,295,R,ugm-3,118,R,ugm-3,569,R,ugm-3
18-01-2011,10:00,331,R,ugm-3,122,R,ugm-3,628,R,ugm-3
18-01-2011,11:00,254,R,ugm-3,138,R,ugm-3,525,R,ugm-3
18-01-2011,12:00,,,,,,,,,
18-01-2011,13:00,68,R,ugm-3,73,R,ugm-3,176,R,ugm-3
18-01-2011,14:00,25,R,ugm-3,50,R,ugm-3,88,R,ugm-3
18-01-2011,15:00,66,R,ugm-3,76,R,ugm-3,178,R,ugm-3
18-01-2011,16:00,74,R,ugm-3,82,R,ugm-3,195,R,ugm-3
18-01-2011,17:00,136,R,ugm-3,111,R,ugm-3,319,R,ugm-3
18-01-2011,18:00,258,R,ugm-3,128,R,ugm-3,521,R,ugm-3
18-01-2011,19:00,203,R,ugm-3,99,R,ugm-3,409,R,ugm-3
18-01-2011,20:00,233,R,ugm-3,101,R,ugm-3,456,R,ugm-3
18-01-2011,21:00,154,R,ugm-3,71,R,ugm-3,306,R,ugm-3
18-01-2011,22:00,159,R,ugm-3,76,R,ugm-3,319,R,ugm-3
18-01-2011,23:00,148,R,ugm-3,61,R,ugm-3,287,R,ugm-3
18-01-2011,24:00,156,R,ugm-3,55,R,ugm-3,294,R,ugm-3
19-01-2011,01:00,104,R,ugm-3,50,R,ugm-3,208,R,ugm-3
19-01-2011,02:00,70,R,ugm-3,38,R,ugm-3,145,R,ugm-3
19-01-2011,03:00,58,R,ugm-3,40,R,ugm-3,128,R,ugm-3
19-01-2011,04:00,80,R,ugm-3,42,R,ugm-3,164,R,ugm-3
19-01-2011,05:00,115,R,ugm-3,48,R,ugm-3,223,R,ugm-3
19-01-2011,06:00,136,R,ugm-3,48,R,ugm-3,256,R,ugm-3
19-01-2011,07:00,205,R,ugm-3,53,R,ugm-3,367,R,ugm-3
19-01-2011,08:00,339,R,ugm-3,78,R,ugm-3,596,R,ugm-3
19-01-2011,09:00,421,R,ugm-3,122,R,ugm-3,766,R,ugm-3
19-01-2011,10:00,373,R,ugm-3,126,R,ugm-3,695,R,ugm-3
19-01-2011,11:00,298,R,ugm-3,109,R,ugm-3,563,R,ugm-3
19-01-2011,12:00,299,R,ugm-3,130,R,ugm-3,586,R,ugm-3
19-01-2011,13:00,176,R,ugm-3,113,R,ugm-3,382,R,ugm-3
19-01-2011,14:00,46,R,ugm-3,78,R,ugm-3,149,R,ugm-3
19-01-2011,15:00,21,R,ugm-3,48,R,ugm-3,80,R,ugm-3
19-01-2011,16:00,31,R,ugm-3,53,R,ugm-3,101,R,ugm-3
19-01-2011,17:00,103,R,ugm-3,92,R,ugm-3,248,R,ugm-3
19-01-2011,18:00,164,R,ugm-3,97,R,ugm-3,348,R,ugm-3
19-01-2011,19:00,256,R,ugm-3,94,R,ugm-3,485,R,ugm-3
19-01-2011,20:00,269,R,ugm-3,96,R,ugm-3,506,R,ugm-3
19-01-2011,21:00,250,R,ugm-3,82,R,ugm-3,464,R,ugm-3
19-01-2011,22:00,280,R,ugm-3,78,R,ugm-3,506,R,ugm-3
19-01-2011,23:00,313,R,ugm-3,73,R,ugm-3,550,R,ugm-3
19-01-2011,24:00,266,R,ugm-3,57,R,ugm-3,464,R,ugm-3
20-01-2011,01:00,243,R,ugm-3,53,R,ugm-3,424,R,ugm-3
20-01-2011,02:00,170,R,ugm-3,40,R,ugm-3,300,R,ugm-3
20-01-2011,03:00,198,R,ugm-3,46,R,ugm-3,348,R,ugm-3
20-01-2011,04:00,160,R,ugm-3,40,R,ugm-3,285,R,ugm-3
20-01-2011,05:00,134,R,ugm-3,48,R,ugm-3,252,R,ugm-3
20-01-2011,06:00,218,R,ugm-3,57,R,ugm-3,390,R,ugm-3
20-01-2011,07:00,276,R,ugm-3,59,R,ugm-3,481,R,ugm-3
20-01-2011,08:00,360,R,ugm-3,80,R,ugm-3,630,R,ugm-3
20-01-2011,09:00,513,R,ugm-3,128,R,ugm-3,911,R,ugm-3
20-01-2011,10:00,514,R,ugm-3,111,R,ugm-3,896,R,ugm-3
20-01-2011,11:00,486,R,ugm-3,149,R,ugm-3,892,R,ugm-3
20-01-2011,12:00,361,R,ugm-3,134,R,ugm-3,686,R,ugm-3
20-01-2011,13:00,259,R,ugm-3,120,R,ugm-3,516,R,ugm-3
20-01-2011,14:00,43,R,ugm-3,67,R,ugm-3,132,R,ugm-3
20-01-2011,15:00,35,R,ugm-3,63,R,ugm-3,117,R,ugm-3
20-01-2011,16:00,25,R,ugm-3,61,R,ugm-3,99,R,ugm-3
20-01-2011,17:00,166,R,ugm-3,101,R,ugm-3,355,R,ugm-3
20-01-2011,18:00,106,R,ugm-3,84,R,ugm-3,246,R,ugm-3
20-01-2011,19:00,191,R,ugm-3,97,R,ugm-3,390,R,ugm-3
20-01-2011,20:00,275,R,ugm-3,109,R,ugm-3,529,R,ugm-3
20-01-2011,21:00,263,R,ugm-3,88,R,ugm-3,489,R,ugm-3